Regional Weather Roundup
Issued by NWS Boston, MA

Home | Current Version | Previous Version | Text Only | Print | Product List | Glossary On
Versions: 1 2 3 4 5 6 7 8 9 10 11 12 13 14 15 16 17 18 19 20 21 22 23 24 25 26 27
000
ASUS41 KBOX 200910
RWRBOX

REGIONAL WEATHER ROUNDUP
NATIONAL WEATHER SERVICE TAUNTON MA
500 AM EDT SUN APR 20 2014

NOTE:  "FAIR" INDICATES FEW OR NO CLOUDS BELOW 12,000 FEET WITH NO
SIGNIFICANT WEATHER AND/OR OBSTRUCTIONS TO VISIBILITY.  THE FOLLOWING
OBSERVATION LOCATIONS DO NOT REPORT PRESENT WEATHER...PROVINCETOWN...
SMITHFIELD...BLOCK ISLAND...KEENE...AND OXFORD.

MAZALL-201000-
EASTERN MASSACHUSETTS

CITY           SKY/WX    TMP DP  RH WIND       PRES   REMARKS
BOSTON         MOCLDY    41  24  51 N5        30.45R
BEVERLY        CLEAR     30  23  75 CALM      30.44R
LAWRENCE       CLEAR     33  23  66 CALM      30.46R
BEDFORD        CLEAR     30  27  88 CALM      30.44R
BLUE HILL        N/A     37  23  56 N9        30.41R WCI  30
NORWOOD        CLEAR     31  25  78 CALM      30.45R
MARSHFIELD       N/A    N/A N/A N/A MISG        N/A
PLYMOUTH       CLEAR     38  25  59 CALM      30.43R
TAUNTON        CLEAR     32  27  81 CALM      30.44R
NEW BEDFORD    CLEAR     35  28  75 CALM      30.43R
$$

MAZALL-201000-
CAPE COD AND THE ISLANDS

CITY           SKY/WX    TMP DP  RH WIND       PRES   REMARKS
FALMOUTH       CLEAR     37  32  81 N5        30.42S
HYANNIS        CLEAR     37  32  82 CALM      30.41R
CHATHAM        CLEAR     37  32  82 CALM      30.43R
PROVINCETOWN   CLEAR     39  36  87 MISG      30.44R
NANTUCKET      CLEAR     36  30  79 N8        30.41S WCI  30
MARTHAS VNYRD  CLEAR     40  29  64 N6        30.42R
$$

MAZALL-201000-
CENTRAL AND WESTERN MASSACHUSETTS

CITY           SKY/WX    TMP DP  RH WIND       PRES   REMARKS
WORCESTER      CLEAR     37  21  52 N8        30.42R WCI  31
FITCHBURG      CLEAR     29  24  82 CALM      30.46R
ORANGE         CLEAR     27  24  89 CALM      30.45R
SPRINGFIELD    CLEAR     29  29  99 NE2       30.46R
WESTFIELD      CLEAR     33  26  75 N3        30.46R
NORTH ADAMS    CLEAR     26  23  88 CALM      30.47R
PITTSFIELD     CLEAR     28  24  85 CALM      30.42R
$$

RIZALL-201000-
RHODE ISLAND

CITY           SKY/WX    TMP DP  RH WIND       PRES   REMARKS
PROVIDENCE     CLEAR     40  24  53 N6        30.45R
NEWPORT        CLEAR     40  25  55 NE5       30.43R
BLOCK ISLAND   PTCLDY    43  30  61 NE8       30.43R
SMITHFIELD     CLEAR     36  21  55 NE3       30.44R
WESTERLY       PTCLDY    37  26  64 CALM      30.44R
$$

CTZALL-201000-
CONNECTICUT

CITY           SKY/WX    TMP DP  RH WIND       PRES   REMARKS
BRADLEY INTL   PTCLDY    38  24  57 N3        30.45R
HARTFORD       PTCLDY    39  28  64 CALM      30.46R
BRIDGEPORT     CLEAR     46  28  49 NE7       30.44R
DANBURY        CLEAR     41  23  48 E5        30.44S
GROTON         CLEAR     41  25  53 N6        30.43S
NEW HAVEN      PTCLDY    42  26  53 N7        30.44R
CHESTER        FAIR      41  27  56 NE5       30.44R
MERIDEN        PTCLDY    38  29  70 CALM      30.45R
WILLIMANTIC    CLEAR     34  27  75 N3        30.45R
OXFORD         PTCLDY    39  21  48 NE8       30.45F
$$

MEZ002-015-021-024-NHZ003-005-008-011-012-014-VTZ005-008-201000-
NORTHERN NEW ENGLAND

CITY           SKY/WX    TMP DP  RH WIND       PRES   REMARKS
PORTLAND ME    PTCLDY    29  22  75 N7        30.45S WCI  22
BANGOR ME      CLEAR     31  19  61 W8        30.45R WCI  23
CONCORD NH     CLEAR     24  21  88 CALM      30.45R
MANCHESTER NH  CLEAR     33  25  72 CALM      30.44R
NASHUA NH      CLEAR     29  25  85 NW6       30.46R WCI  23
PORTSMOUTH NH  PTCLDY    35  23  63 NW3       30.43R
JAFFREY NH     CLEAR     26  23  88 CALM      30.44R
KEENE NH       CLEAR     27  19  74 CALM      30.47R
BURLINGTON VT  CLEAR     29  24  82 CALM      30.47R
MT. WASHINGTON NOT AVBL
$$

NYZ052-076-201000-
EASTERN NEW YORK

CITY           SKY/WX    TMP DP  RH WIND       PRES   REMARKS
ALBANY         PTCLDY    33  24  69 CALM      30.48R
NEW YORK CITY  MOCLDY    46  36  68 NE7       30.42R
$$

ANZALL-201000-
MARINE OBSERVATIONS

STATION/POSITION TIME  TEMP    WIND        PRES    VSBY  WAVE
                       AIR SEA DIR/SP/G                  HT/PER
                 (UTC) (F)     (DEG/KT/KT) (MB)    (MI)  (FT/S)
BOSTON BUOY      0850   41 40  320/  6/  8 1030.7R         3/10
BUZZARDS BAY     0800           20/ 14/ 15 1030.6R
NANTUCKET SOUND  0850   44 45   30/ 10/ 10 1030.0R         2/ 3
MASS BAY-STELLWA 0804   41 40  340/  8/  8 1029.1R  1 7/8  3/11
ISLE OF SHOALS   0800   41     350/ 10/ 11 1029.8F
S OF BLOCK IS    0825      41                N/A           3/ 9
$$

......................KEY.........................
  SKY/WX - SKY CONDITION/PRESENT WEATHER
  TMP    - TEMPERATURE IN FAHRENHEIT
  DWPT   - DEWPOINT IN FAHRENHEIT
  RH     - RELATIVE HUMIDITY IN PERCENT
  WIND   - DIRECTION AND SPEED IN MPH
  PRES   - MEAN SEA LEVEL PRESSURE IN INCHES OF HG
  WCI    - WIND CHILL INDEX
  VSB    - VISIBILITY IN MILES
  HX     - HEAT INDEX
  TC     - TEMPERATURE IN CELSIUS
  VRB    - VARIABLE WIND DIRECTION
  N/A    - NOT AVAILABLE



USA.gov is the U.S. government's official web portal to all federal, state and local government web resources and services.